Weather History for Warroad, MN

Change the Weather History Date:

Thursday, May 9, 2013

  Actual Average Record
Temperature  
Mean Temperature 44 °F -  
Max Temperature 53 °F 60 °F 89 °F (1987)
Min Temperature 35 °F 37 °F 21 °F (1966)
Degree Days  
Heating Degree Days 21    
Moisture  
Dew Point 27 °F    
Average Humidity 53    
Maximum Humidity 70    
Minimum Humidity 35    
Precipitation  
Precipitation 0.00 in - - ()
Sea Level Pressure  
Sea Level Pressure 30.24 in    
Wind  
Wind Speed 11 mph (NE)    
Max Wind Speed 16 mph    
Max Gust Speed 22 mph    
Visibility 10 miles    
Events      
Averages and records for this station are not official NWS values.
T = Trace of Precipitation, MM = Missing Value Source: NWS Daily Summary

Daily Weather History Graph

Daily Weather History Graph

Search for Another Location

Airport:

Trip Planner

Search our weather history database for the weather conditions in past years. The results will help you decide how hot, cold, wet, or windy it might be!

Date:

Astronomy

May. 09, 2013 Rise Set
Actual Time 5:47 AM CDT 8:49 PM CDT
Civil Twilight 5:10 AM CDT 9:26 PM CDT
Nautical Twilight 4:22 AM CDT 10:14 PM CDT
Astronomical Twilight 3:23 AM CDT 11:14 PM CDT
Moon 5:35 AM CDT (5/9) 8:44 PM CDT (5/9)
Length of Visible Light 16h 15m
Length of Day
15h 01m
Waning Crescent, 0% of the Moon is Illuminated
May 9
Waning Crescent
May 9
New
May 17
First Quarter
May 24
Full
May 31
Last Quarter

Hourly Weather History & Observations

Time (CDT) Temp. Windchill Dew Point Humidity Pressure Visibility Wind Dir Wind Speed Gust Speed Precip Events Conditions
12:14 AM 44.6 °F 38.8 °F 30.2 °F 57% 30.18 in 10.0 mi North 11.5 mph - N/A   Scattered Clouds
12:34 AM 44.6 °F 39.7 °F 30.2 °F 57% 30.18 in 10.0 mi North 9.2 mph - N/A   Scattered Clouds
12:54 AM 42.8 °F 37.5 °F 30.2 °F 61% 30.18 in 10.0 mi North 9.2 mph - N/A   Clear
1:14 AM 42.8 °F 37.0 °F 30.2 °F 61% 30.18 in 10.0 mi North 10.4 mph - N/A   Clear
1:34 AM 42.8 °F 37.5 °F 28.4 °F 57% 30.18 in 10.0 mi North 9.2 mph - N/A   Clear
1:54 AM 41.0 °F 34.3 °F 28.4 °F 61% 30.19 in 10.0 mi North 11.5 mph 17.3 mph N/A   Clear
2:14 AM 41.0 °F 34.7 °F 28.4 °F 61% 30.19 in 10.0 mi North 10.4 mph - N/A   Clear
2:34 AM 41.0 °F 34.3 °F 28.4 °F 61% 30.19 in 10.0 mi North 11.5 mph 16.1 mph N/A   Clear
2:54 AM 41.0 °F 33.5 °F 28.4 °F 61% 30.19 in 10.0 mi North 13.8 mph 18.4 mph N/A   Clear
3:14 AM 39.2 °F 32.0 °F 28.4 °F 65% 30.20 in 10.0 mi North 11.5 mph - N/A   Clear
3:34 AM 39.2 °F 31.2 °F 28.4 °F 65% 30.20 in 10.0 mi North 13.8 mph - N/A   Clear
3:54 AM 39.2 °F 32.0 °F 26.6 °F 61% 30.20 in 10.0 mi North 11.5 mph - N/A   Clear
4:14 AM 37.4 °F 30.3 °F 28.4 °F 70% 30.20 in 10.0 mi North 10.4 mph - N/A   Clear
4:34 AM 37.4 °F 30.3 °F 26.6 °F 65% 30.21 in 10.0 mi North 10.4 mph - N/A   Clear
4:54 AM 37.4 °F 30.3 °F 26.6 °F 65% 30.21 in 10.0 mi North 10.4 mph - N/A   Clear
5:14 AM 37.4 °F 29.8 °F 26.6 °F 65% 30.22 in 10.0 mi North 11.5 mph - N/A   Clear
5:34 AM 37.4 °F 29.8 °F 26.6 °F 65% 30.22 in 10.0 mi North 11.5 mph - N/A   Clear
5:54 AM 35.6 °F 27.5 °F 26.6 °F 70% 30.23 in 10.0 mi North 11.5 mph - N/A   Clear
6:14 AM 35.6 °F 28.6 °F 26.6 °F 70% 30.23 in 10.0 mi North 9.2 mph - N/A   Clear
6:34 AM 35.6 °F 28.6 °F 26.6 °F 70% 30.24 in 10.0 mi North 9.2 mph - N/A   Clear
6:54 AM 35.6 °F 28.0 °F 26.6 °F 70% 30.25 in 10.0 mi North 10.4 mph 17.3 mph N/A   Clear
7:14 AM 35.6 °F 28.0 °F 26.6 °F 70% 30.26 in 10.0 mi NNE 10.4 mph - N/A   Clear
7:34 AM 37.4 °F 30.3 °F 26.6 °F 65% 30.26 in 10.0 mi NNE 10.4 mph 16.1 mph N/A   Clear
7:53 AM 37.4 °F 29.3 °F 26.6 °F 65% 30.27 in 10.0 mi NNE 12.7 mph 16.1 mph N/A   Clear
8:14 AM 39.2 °F 31.6 °F 26.6 °F 61% 30.27 in 10.0 mi NNE 12.7 mph 18.4 mph N/A   Clear
8:34 AM 39.2 °F 32.0 °F 26.6 °F 61% 30.28 in 10.0 mi NNE 11.5 mph 19.6 mph N/A   Clear
8:54 AM 39.2 °F 32.5 °F 26.6 °F 61% 30.28 in 10.0 mi NE 10.4 mph 17.3 mph N/A   Clear
9:14 AM 41.0 °F 33.5 °F 28.4 °F 61% 30.28 in 10.0 mi NE 13.8 mph 18.4 mph N/A   Clear
9:34 AM 42.8 °F 36.2 °F 28.4 °F 57% 30.28 in 10.0 mi NE 12.7 mph 16.1 mph N/A   Clear
9:54 AM 42.8 °F 36.6 °F 28.4 °F 57% 30.28 in 10.0 mi NE 11.5 mph - N/A   Clear
10:34 AM 46.4 °F 41.1 °F 28.4 °F 50% 30.29 in 10.0 mi NE 11.5 mph 21.9 mph N/A   Clear
10:54 AM 46.4 °F 40.4 °F 28.4 °F 50% 30.29 in 10.0 mi NE 13.8 mph 21.9 mph N/A   Clear
11:14 AM 46.4 °F 39.8 °F 28.4 °F 50% 30.29 in 10.0 mi NE 16.1 mph - N/A   Clear
11:34 AM 48.2 °F - 28.4 °F 46% 30.30 in 10.0 mi NNE 10.4 mph 19.6 mph N/A   Clear
12:14 PM 48.2 °F - 28.4 °F 46% 30.29 in 10.0 mi NE 13.8 mph 18.4 mph N/A   Clear
12:34 PM 48.2 °F - 28.4 °F 46% 30.29 in 10.0 mi NE 12.7 mph 18.4 mph N/A   Clear
12:54 PM 50.0 °F - 26.6 °F 40% 30.29 in 10.0 mi NE 13.8 mph - N/A   Clear
1:14 PM 50.0 °F - 26.6 °F 40% 30.28 in 10.0 mi NE 13.8 mph - N/A   Clear
1:34 PM 51.8 °F - 26.6 °F 38% 30.28 in 10.0 mi NE 12.7 mph 20.7 mph N/A   Clear
1:54 PM 50.0 °F - 28.4 °F 43% 30.28 in 10.0 mi NE 15.0 mph - N/A   Clear
2:14 PM 51.8 °F - 26.6 °F 38% 30.27 in 10.0 mi NE 13.8 mph - N/A   Clear
2:34 PM 51.8 °F - 28.4 °F 41% 30.27 in 10.0 mi NE 13.8 mph - N/A   Clear
2:54 PM 51.8 °F - 28.4 °F 41% 30.27 in 10.0 mi NE 12.7 mph 18.4 mph N/A   Clear
3:14 PM 51.8 °F - 28.4 °F 41% 30.26 in 10.0 mi ENE 10.4 mph 16.1 mph N/A   Clear
3:34 PM 51.8 °F - 28.4 °F 41% 30.26 in 10.0 mi NE 10.4 mph - N/A   Clear
3:54 PM 51.8 °F - 28.4 °F 41% 30.25 in 10.0 mi NE 10.4 mph - N/A   Clear
4:14 PM 51.8 °F - 26.6 °F 38% 30.25 in 10.0 mi NE 11.5 mph - N/A   Clear
4:34 PM 51.8 °F - 26.6 °F 38% 30.24 in 10.0 mi NE 10.4 mph - N/A   Clear
4:54 PM 51.8 °F - 26.6 °F 38% 30.23 in 10.0 mi NE 9.2 mph - N/A   Clear
5:14 PM 51.8 °F - 26.6 °F 38% 30.23 in 10.0 mi NE 10.4 mph - N/A   Clear
5:34 PM 53.6 °F - 26.6 °F 35% 30.22 in 10.0 mi NE 11.5 mph - N/A   Clear
5:54 PM 51.8 °F - 26.6 °F 38% 30.23 in 10.0 mi ENE 8.1 mph - N/A   Clear
6:14 PM 51.8 °F - 26.6 °F 38% 30.22 in 10.0 mi NE 9.2 mph - N/A   Clear
6:34 PM 51.8 °F - 26.6 °F 38% 30.22 in 10.0 mi NE 9.2 mph - N/A   Clear
6:54 PM 51.8 °F - 26.6 °F 38% 30.22 in 10.0 mi NE 8.1 mph - N/A   Clear
7:14 PM 51.8 °F - 26.6 °F 38% 30.21 in 10.0 mi NE 9.2 mph - N/A   Clear
7:34 PM 51.8 °F - 24.8 °F 35% 30.21 in 10.0 mi NNE 9.2 mph - N/A   Clear
7:54 PM 48.2 °F - 24.8 °F 40% 30.21 in 10.0 mi NE 8.1 mph - N/A   Clear
8:14 PM 48.2 °F - 24.8 °F 40% 30.21 in 10.0 mi NE 8.1 mph - N/A   Clear
8:34 PM 46.4 °F 42.9 °F 24.8 °F 43% 30.21 in 10.0 mi NE 6.9 mph - N/A   Clear
8:54 PM 44.6 °F 40.2 °F 24.8 °F 46% 30.22 in 10.0 mi NE 8.1 mph - N/A   Clear
9:14 PM 44.6 °F 41.4 °F 26.6 °F 49% 30.22 in 10.0 mi NE 5.8 mph - N/A   Clear
9:34 PM 44.6 °F 41.4 °F 24.8 °F 46% 30.23 in 10.0 mi NE 5.8 mph - N/A   Clear
9:54 PM 44.6 °F 41.4 °F 26.6 °F 49% 30.23 in 10.0 mi NE 5.8 mph - N/A   Clear
10:14 PM 42.8 °F 39.3 °F 24.8 °F 49% 30.23 in 10.0 mi NNE 5.8 mph - N/A   Clear
10:54 PM 37.4 °F 34.9 °F 26.6 °F 65% 30.23 in 10.0 mi East 3.5 mph - N/A   Clear
11:14 PM 35.6 °F 32.8 °F 26.6 °F 70% 30.23 in 10.0 mi ENE 3.5 mph - N/A   Clear
11:34 PM 35.6 °F - 26.6 °F 70% 30.23 in 10.0 mi Calm Calm - N/A   Clear
11:54 PM 35.6 °F 32.8 °F 26.6 °F 70% 30.23 in 10.0 mi East 3.5 mph - N/A   Clear